736  
ASUS43 KEAX 262315  
RWREAX  
 
WEATHER ROUNDUP FOR EASTERN KANSAS AND NORTHWEST MISSOURI  
NATIONAL WEATHER SERVICE KANSAS CITY/PLEASANT HILL MO  
500 PM CST SAT NOV 26 2022  
 
KSZ040-057-103>105-MOZ028-029-037-043-270000-   
..KANSAS CITY METROPOLITAN AREA
 
 
 
CITY SKY/WX TMP DP RH WIND PRES REMARKS
 
K.C. INTL CLOUDY 51 40 65 E7 29.76S  
K.C. DOWNTOWN CLOUDY 51 39 63 NE8 29.75F  
LEES SUMMIT CLOUDY 50 36 58 E5 29.76F  
OLATHE - IXD LGT RAIN 49 36 61 NE9 29.74F  
OLATHE - OJC CLOUDY 49 36 61 E6 29.74F  
LAWRENCE CLOUDY 49 40 71 N5 29.75F  
 

 
 
MOZ001>008-011>017-020>025-030>033-038>040-044>046-053-054-270000-   
..NORTHERN AND CENTRAL MISSOURI
 
 
 
CITY SKY/WX TMP DP RH WIND PRES REMARKS
 
ST. JOSEPH CLOUDY 49 39 68 SE3 29.78F  
MOSBY CLOUDY 50 37 62 E5 29.77F  
HARRISONVILLE CLOUDY 50 41 71 E5 29.77F  
WHITEMAN AFB CLOUDY 50 39 67 SE3 29.71F  
CLINTON CLOUDY 50 43 76 NE5 29.75F  
SEDALIA CLOUDY 51 39 63 E5 29.78F  
MARSHALL CLOUDY 50 37 62 E6 29.78F HAZE  
CHILLICOTHE N/A 50 37 61 NE6 29.79F  
MOBERLY MOCLDY 48 32 53 E7 29.80F  
KIRKSVILLE MOCLDY 45 29 53 NE6 29.80F  
 

 
 
MOZ041-047>049-056>058-063>065-088>090-097-270000-   
..EASTERN AND SOUTHERN MISSOURI
 
 
 
CITY SKY/WX TMP DP RH WIND PRES REMARKS
 
ST. LOUIS INTL CLOUDY 48 40 73 E10 29.85F  
SPIRIT OF STL CLOUDY 47 41 80 E7 29.83F  
COLUMBIA CLOUDY 53 39 59 E6 29.79F  
JEFFERSON CITY CLOUDY 55 41 59 SE7 29.79F  
MEXICO CLOUDY 48 37 66 CALM 29.81S  
HANNIBAL MOCLDY 50 36 57 E6 29.83F  
ROLLA CLOUDY 50 43 77 E7 29.80F  
LEBANON CLOUDY 48 45 87 E7 29.77F  
OSAGE BEACH CLOUDY 51 44 77 E8 N/A  
SPRINGFIELD LGT RAIN 49 48 97 E10 29.67F FOG  
BRANSON LGT RAIN 46 46 100 E12 29.69F FOG  
JOPLIN LGT RAIN 49 47 93 E15 29.64F FOG  
WEST PLAINS LGT RAIN 48 44 86 E8 29.76F FOG  
SIKESTON DRIZZLE 50 46 87 E8 29.85F  
 

 
 
IAZ060-094-KSZ022-034>040-054-083-096-NEZ052-066-093-270000-    
..KANSAS...SOUTHEAST NEBRASKA AND IOWA
 
 
 
CITY SKY/WX TMP DP RH WIND PRES REMARKS
 
TOPEKA CLOUDY 49 39 68 N6 29.75F  
MANHATTAN CLOUDY 48 38 68 NE6 29.75F  
EMPORIA CLOUDY 48 41 76 CALM 29.69F  
CHANUTE CLOUDY 48 44 86 NE12 29.65F  
SALINA CLOUDY 48 37 65 E5 29.75R  
WICHITA RAIN 47 44 90 NE9 29.69F FOG  
OMAHA CLOUDY 52 29 41 S9 29.72F  
LINCOLN CLOUDY 52 30 43 S8 29.73S  
FALLS CITY MOCLDY 48 37 65 SE3 29.75S  
LAMONI CLOUDY 48 37 65 S9 29.77F  
DES MOINES CLOUDY 50 32 50 S8 29.77F  
 

 
 
 
 
CLICK HERE TO GO TO PREVIOUS BULLETINS.

The Nexlab MO Page
The Nexlab KS Page Main Text Page